[[{"header":{"parameterUnit":"m.s-1","parameterCategory":1,"la1":30.2991,"la2":30.254,"lo1":-89.0895,"lo2":-89.0444,"dy":0.0017,"dx":0.0017,"nx":28,"ny":28,"refTime":"2023-09-20T09:00:00:Z","depth":0,"parameterNumber":2,"parameterNumberName":"U-component_of_WINDS"},"data":[0,0,0,0,0,0,0,0,0,0,0,0,0,0,0,0,0,0,0,0,0,0,0,0,0,0,0,0,0,0,0,0,0,0,0,0,0,0,0,0,0,0,0,0,0,0,0,0,0,0,0,0,0,0,0,0,0,0,-6.1274,-6.1274,0,-6.1243,-6.1242,-6.1242,-6.1093,-6.109,-6.1086,-6.1083,-6.1051,-6.1054,-6.1056,0,0,0,0,0,0,0,0,0,0,0,0,0,-6.1208,-6.121,-6.1274,-6.1274,-6.1274,-6.1243,-6.1242,-6.1242,-6.1094,-6.109,-6.1085,-6.1081,-6.1051,-6.1054,-6.1056,0,0,0,0,0,0,0,0,0,0,0,0,0,-6.1213,-6.1211,-6.1274,-6.1196,-6.1189,-6.1243,-6.1242,-6.1242,-6.1095,-6.109,-6.1084,-6.1079,-6.105,-6.1053,-6.1057,-6.1185,0,0,-6.1068,-6.107,0,0,0,0,0,0,0,0,-6.1213,-6.1216,-6.1208,-6.1201,-6.1193,-6.1167,-6.1207,-6.1223,-6.1096,-6.113,-6.1083,-6.1077,-6.1094,-6.1094,-6.1099,-6.1183,-6.1182,-6.1068,-6.107,-6.1072,-6.1073,0,0,0,0,0,0,0,-6.1213,-6.1216,-6.1262,-6.1208,-6.1199,-6.1163,-6.1158,-6.121,-6.1142,-6.1127,-6.1116,-6.1114,-6.1089,-6.1096,-6.1098,-6.1181,-6.1068,-6.1071,-6.1074,-6.1075,-6.1369,-6.1374,0,0,0,0,0,0,-6.1223,-6.1217,-6.1263,-6.1261,-6.119,-6.1169,-6.1163,-6.1181,-6.1141,-6.113,-6.1119,-6.1108,-6.1093,-6.1093,-6.1096,-6.1242,-6.1072,-6.1075,-6.1078,-6.1363,-6.137,-6.1376,0,0,0,0,0,0,-6.1223,-6.1229,-6.1264,-6.1236,-6.1238,-6.1175,-6.1196,-6.1183,-6.1189,-6.1135,-6.1122,-6.1138,-6.1088,-6.1091,-6.1164,-6.1239,-6.1077,-6.108,-6.1357,-6.1365,-6.1373,-6.1536,0,0,0,0,0,0,-6.1221,-6.1229,-6.1277,-6.1238,-6.124,-6.1332,-6.1201,-6.1186,-6.1196,-6.1181,-6.115,-6.114,-6.1085,-6.1159,-6.1167,-6.1241,-6.1083,-6.135,-6.1361,-6.1371,-6.1524,-6.1549,-6.1571,0,0,0,0,0,-6.1219,-6.1324,-6.128,-6.1286,-6.1297,-6.1337,-6.1338,-6.1272,-6.1203,-6.125,-6.1215,-6.1141,-6.123,-6.1168,-6.1176,-6.1252,-6.1344,-6.1357,-6.137,-6.1513,-6.1544,-6.157,0,0,0,0,0,0,-6.1372,-6.1317,-6.1268,-6.1362,-6.1356,-6.1311,-6.1368,-6.1307,-6.1319,-6.1304,-6.1222,-6.1217,-6.1302,-6.1284,-6.1216,-6.1374,-6.1275,-6.129,-6.1381,-6.141,-6.1433,-6.1434,-6.1086,0,0,0,0,0,-6.1417,-6.1453,-6.1403,-6.1492,-6.1491,-6.1432,-6.1446,-6.1396,-6.1385,-6.1382,-6.1352,-6.1345,-6.1371,-6.139,-6.1412,-6.1522,-6.1513,-6.1579,-6.1602,-6.1622,-6.1635,-6.1692,-6.172,-6.1418,-6.1418,-6.1417,0,0,-6.1509,-6.1484,-6.1511,-6.1522,-6.151,-6.155,-6.1429,-6.1476,-6.1505,-6.1389,-6.1455,-6.1434,-6.1421,-6.1514,-6.1553,-6.1501,-6.1717,-6.1638,-6.1654,-6.1656,-6.1708,-6.1736,-6.1762,-6.1426,-6.1425,-6.1423,0,0,-6.1697,-6.1683,-6.1754,-6.1746,-6.1731,-6.1691,-6.1709,-6.1675,-6.1656,-6.1722,-6.1636,-6.167,-6.1717,-6.1711,-6.1715,-6.1905,-6.1837,-6.1915,-6.2037,-6.2093,-6.2117,-6.2138,-6.2205,-6.223,-6.1929,-6.1929,-6.1929,0,-6.1814,-6.1869,-6.1799,-6.1852,-6.1859,-6.1758,-6.183,-6.1826,-6.1819,-6.1826,-6.177,-6.1828,-6.1812,-6.1901,-6.1948,-6.1955,-6.1972,-6.1916,-6.212,-6.214,-6.2158,-6.222,-6.2246,-6.1938,-6.1937,-6.1936,-6.1935,0,-6.2013,-6.2054,-6.2114,-6.211,-6.2125,-6.2187,-6.2127,-6.2151,-6.2102,-6.2068,-6.2137,-6.2115,-6.213,-6.2149,-6.2101,-6.2232,-6.2201,-6.2134,-6.2032,-6.2197,-6.2255,-6.2278,-6.1952,-6.1948,-6.1946,-6.1943,0,0,-6.2292,-6.2251,-6.2274,-6.2271,-6.2249,-6.2279,-6.2338,-6.2353,-6.2375,-6.2375,-6.2422,-6.2467,-6.2404,-6.2409,-6.2359,-6.241,-6.2561,-6.2336,-6.2334,-6.2377,-6.2704,-6.2753,-6.2782,-6.2518,-6.2522,-6.2525,-6.2705,0,-6.247,-6.2567,-6.2508,-6.2614,-6.2651,-6.2557,-6.2609,-6.2601,-6.2573,-6.26,-6.2569,-6.2601,-6.2517,-6.2519,-6.2565,-6.2533,-6.2625,-6.252,-6.256,-6.2562,-6.2563,-6.2812,-6.2864,-6.3034,-6.2727,-6.2731,-6.2734,0,-6.2689,-6.2699,-6.281,-6.2782,-6.2795,-6.2843,-6.2852,-6.288,-6.2871,-6.2847,-6.2854,-6.2793,-6.2849,-6.2753,-6.283,-6.2759,-6.2773,-6.276,-6.2765,-6.2764,-6.2656,-6.2816,-6.3087,-6.3112,-6.2769,-6.2766,-6.2763,0,-6.288,-6.2921,-6.2993,-6.2994,-6.2963,-6.2999,-6.2988,-6.2973,-6.2987,-6.2996,-6.3004,-6.3021,-6.303,-6.3045,-6.299,-6.2925,-6.3075,-6.2973,-6.3056,-6.3057,-6.3088,-6.3087,-6.3363,-6.3103,-6.3102,-6.3102,-6.3101,0,-6.3083,-6.3154,-6.3078,-6.3121,-6.3199,-6.3131,-6.321,-6.3189,-6.3178,-6.3216,-6.3137,-6.3175,-6.3102,-6.3134,-6.3092,-6.3162,-6.3167,-6.3149,-6.3137,-6.3154,-6.3157,-6.316,-6.3146,-6.3108,-6.3107,-6.3106,-6.3104,0,-6.3306,-6.3258,-6.333,-6.3296,-6.329,-6.3348,-6.3319,-6.3359,-6.3327,-6.3377,-6.3385,-6.3334,-6.3367,-6.3315,-6.3342,-6.3314,-6.3411,-6.3382,-6.3414,-6.3404,-6.3489,-6.3481,-6.3775,-6.381,-6.353,-6.3533,-6.3535,0,-6.3437,-6.349,-6.3463,-6.3483,-6.3477,-6.3511,-6.3525,-6.3462,-6.3479,-6.3474,-6.3515,-6.3541,-6.3558,-6.3616,-6.3581,-6.3602,-6.3571,-6.3673,-6.3573,-6.359,-6.357,-6.3567,-6.3571,-6.3692,-6.3696,-6.3698,-6.3701,0,-6.3675,-6.3649,-6.3672,-6.3688,-6.3708,-6.3717,-6.3721,-6.3742,-6.3676,-6.37,-6.3733,-6.3747,-6.3775,-6.3802,-6.3815,-6.3804,-6.3742,-6.3733,-6.3753,-6.377,-6.3786,-6.3776,-6.3467,-6.3725,-6.3723,-6.3721,-6.372,-6.3719,-6.3854,-6.3897,-6.3885,-6.3914,-6.391,-6.3917,-6.3952,-6.3926,-6.3952,-6.3969,-6.3932,-6.3974,-6.3965,-6.3976,-6.3972,-6.4005,-6.396,-6.3989,-6.3996,-6.4004,-6.4016,-6.3784,-6.4007,-6.4007,-6.4006,-6.4005,-6.4005,0,-6.4085,-6.4074,-6.4102,-6.411,-6.4134,-6.4075,-6.4077,-6.41,-6.4138,-6.4136,-6.4155,-6.4194,-6.4221,-6.4191,-6.4212,-6.4244,-6.4216,-6.4251,-6.4247,-6.4245,-6.4056,-6.4035,-6.4274,-6.4274,-6.4274,-6.4274,-6.4274,-6.4273,-6.4208,-6.4277,-6.4252,-6.4319,-6.4307,-6.4348,-6.4354,-6.436,-6.4357,-6.4404,-6.4426,-6.4406,-6.4393,-6.4413,-6.4436,-6.4426,-6.4437,-6.4482,-6.4463,-6.4285,-6.4259,-6.4233,-6.4214,-6.4486,-6.4486,-6.4649,-6.465,-6.4651]},{"header":{"parameterUnit":"m.s-1","parameterCategory":1,"la1":30.2991,"la2":30.254,"lo1":-89.0895,"lo2":-89.0444,"dy":0.0017,"dx":0.0017,"nx":28,"ny":28,"refTime":"2023-09-20T09:00:00:Z","depth":0,"parameterNumber":3,"parameterNumberName":"V-component_of_WINDS"},"data":[0,0,0,0,0,0,0,0,0,0,0,0,0,0,0,0,0,0,0,0,0,0,0,0,0,0,0,0,0,0,0,0,0,0,0,0,0,0,0,0,0,0,0,0,0,0,0,0,0,0,0,0,0,0,0,0,0,0,2.1019,2.1018,0,2.0982,2.0982,2.0981,2.1011,2.1013,2.1014,2.1015,2.0969,2.0967,2.0964,0,0,0,0,0,0,0,0,0,0,0,0,0,2.1109,2.1108,2.1019,2.1018,2.1018,2.0982,2.0982,2.0981,2.1011,2.1013,2.1014,2.1016,2.097,2.0967,2.0964,0,0,0,0,0,0,0,0,0,0,0,0,0,2.1071,2.1107,2.1019,2.1029,2.1029,2.0982,2.0982,2.0981,2.1011,2.1013,2.1015,2.1017,2.0971,2.0967,2.0964,2.0902,0,0,2.0953,2.0951,0,0,0,0,0,0,0,0,2.1073,2.1067,2.1028,2.1028,2.1029,2.1004,2.0997,2.0954,2.101,2.1018,2.1015,2.1018,2.0978,2.0974,2.0963,2.09,2.0898,2.0952,2.095,2.0948,2.0947,0,0,0,0,0,0,0,2.1076,2.1069,2.1004,2.1027,2.1028,2.1033,2.103,2.0989,2.0987,2.1017,2.1019,2.1015,2.0979,2.0966,2.0962,2.0897,2.0952,2.0949,2.0947,2.0945,2.0784,2.0782,0,0,0,0,0,0,2.1078,2.1071,2.1005,2.1003,2.1056,2.103,2.1026,2.1009,2.0988,2.0987,2.1013,2.1017,2.0972,2.0966,2.096,2.0887,2.0948,2.0945,2.0943,2.0786,2.0783,2.0781,0,0,0,0,0,0,2.108,2.1072,2.1007,2.1038,2.103,2.1027,2.1007,2.1008,2.0995,2.0985,2.0984,2.1001,2.0973,2.0966,2.0917,2.0886,2.0943,2.094,2.0788,2.0785,2.0782,2.074,0,0,0,0,0,0,2.1083,2.1073,2.105,2.1037,2.1028,2.0966,2.1005,2.1006,2.099,2.0994,2.0973,2.0972,2.0974,2.0923,2.0914,2.0882,2.0937,2.0791,2.0787,2.0783,2.0744,2.0736,2.0729,0,0,0,0,0,2.1086,2.1038,2.1049,2.1041,2.1001,2.0964,2.0958,2.0964,2.0987,2.0964,2.0958,2.0972,2.0892,2.0917,2.0908,2.0874,2.0793,2.0788,2.0783,2.0748,2.0738,2.0729,0,0,0,0,0,0,2.1043,2.1036,2.1048,2.0995,2.0981,2.0969,2.094,2.0953,2.0929,2.0933,2.0939,2.0934,2.0884,2.0875,2.0903,2.0814,2.0846,2.0839,2.0822,2.0812,2.0805,2.0807,2.0934,0,0,0,0,0,2.1029,2.1002,2.0996,2.095,2.0942,2.0942,2.0926,2.0933,2.0916,2.0909,2.09,2.0881,2.0852,2.0832,2.0804,2.0744,2.074,2.0717,2.0709,2.0703,2.0696,2.0664,2.0653,2.0765,2.0765,2.0765,0,0,2.0996,2.0989,2.0971,2.0941,2.093,2.09,2.0936,2.0903,2.088,2.0903,2.0858,2.085,2.083,2.0776,2.0752,2.0767,2.0665,2.0697,2.0692,2.0688,2.0658,2.0647,2.0637,2.0762,2.0763,2.0763,0,0,2.0922,2.0914,2.0875,2.0865,2.085,2.0851,2.0842,2.0829,2.0826,2.0782,2.0799,2.0771,2.0721,2.0706,2.0692,2.0616,2.0628,2.0607,2.0565,2.0534,2.0525,2.0517,2.0489,2.0479,2.0601,2.06,2.06,0,2.0882,2.084,2.0853,2.0819,2.0805,2.0829,2.0789,2.0777,2.0752,2.0741,2.076,2.0699,2.0686,2.0629,2.0612,2.06,2.0588,2.0607,2.0526,2.0518,2.0511,2.0484,2.0474,2.0598,2.0598,2.0598,2.0599,0,2.0792,2.0763,2.0733,2.0713,2.0696,2.0659,2.0664,2.0645,2.0654,2.0653,2.0607,2.0595,2.0565,2.0553,2.056,2.0497,2.0507,2.0526,2.0556,2.0497,2.0472,2.0462,2.0594,2.0595,2.0596,2.0596,0,0,2.0686,2.0676,2.0665,2.0656,2.0643,2.062,2.0584,2.0559,2.0542,2.0525,2.0494,2.0453,2.0471,2.0455,2.0461,2.0434,2.0374,2.0456,2.0455,2.044,2.0304,2.0288,2.0276,2.0384,2.0382,2.0381,2.0305,0,2.061,2.0551,2.0563,2.0504,2.0477,2.0501,2.047,2.0457,2.0456,2.0432,2.043,2.04,2.0427,2.0417,2.0392,2.0387,2.0347,2.0393,2.0352,2.0351,2.0355,2.0263,2.0246,2.0176,2.0295,2.0294,2.0293,0,2.0513,2.0496,2.0436,2.0429,2.0418,2.039,2.0369,2.0346,2.0332,2.0334,2.0318,2.033,2.0293,2.0327,2.0276,2.0307,2.0292,2.0287,2.0284,2.0278,2.0316,2.0253,2.0153,2.0142,2.0277,2.0279,2.028,0,2.044,2.0403,2.0362,2.0354,2.0345,2.0325,2.032,2.0309,2.0294,2.0275,2.0265,2.0241,2.0227,2.0207,2.0212,2.0237,2.0159,2.0194,2.0157,2.0157,2.0136,2.0137,2.0031,2.013,2.0131,2.0131,2.0131,0,2.0353,2.0314,2.0329,2.0304,2.0261,2.0276,2.0233,2.023,2.0221,2.0194,2.0214,2.0188,2.0196,2.0171,2.0174,2.013,2.0124,2.0122,2.0123,2.0119,2.0119,2.0107,2.0111,2.0128,2.0129,2.0129,2.013,0,2.0263,2.0272,2.0229,2.0226,2.0224,2.0193,2.0189,2.0165,2.0168,2.0133,2.0126,2.0128,2.0099,2.0103,2.007,2.0072,2.0018,2.0025,2.0023,2.0024,1.9986,1.9989,1.9866,1.985,1.9962,1.9961,1.996,0,2.0205,2.0177,2.0172,2.0158,2.0152,2.0128,2.0114,2.0127,2.0111,2.0096,2.0072,2.0046,2.0025,1.9978,1.9975,1.9949,1.9955,1.9914,1.9951,1.9949,1.9953,1.9954,1.9951,1.9906,1.9905,1.9903,1.9903,0,2.0102,2.0109,2.0089,2.0071,2.0055,2.0041,2.0028,2.0014,2.0027,2.0008,1.998,1.9965,1.9933,1.9906,1.9883,1.9875,1.989,1.9892,1.9882,1.9876,1.9875,1.9874,2.0001,1.9894,1.9895,1.9895,1.9896,1.9896,2.0025,2.0002,1.9996,1.9973,1.9967,1.9955,1.9933,1.9934,1.9913,1.989,1.9899,1.9867,1.9856,1.9827,1.9818,1.9792,1.9807,1.9792,1.9788,1.9784,1.9779,1.9882,1.9788,1.9788,1.9788,1.9789,1.9789,0,1.9922,1.9921,1.99,1.9884,1.9867,1.9888,1.9875,1.9858,1.9831,1.9821,1.9802,1.9771,1.9745,1.9743,1.9718,1.9698,1.9704,1.9691,1.9691,1.9689,1.9768,1.9778,1.9687,1.9687,1.9687,1.9687,1.9687,1.9687,1.9866,1.9828,1.9834,1.9792,1.979,1.9762,1.9753,1.9743,1.9735,1.97,1.9681,1.9681,1.9673,1.9649,1.9626,1.9626,1.9615,1.9599,1.9601,1.9673,1.9684,1.9693,1.9703,1.9597,1.9597,1.9525,1.9524,1.9523]}]]